Location: Unspecified
(44.0704°N, 88.6889°W)
Time: 03:13:43
(UTC+02:00)

Transit 2A - Pass Details

Date: 17 June 2019
Orbit: 596 x 962 km, 66.7° (Epoch: 16 August)

Event Time Altitude Azimuth Distance (km) Brightness Sun altitude
Rises 11:59:49 0° 276° (W) 3,646 9.1 -2.5°
Reaches altitude 10° 12:03:52 10° 301° (WNW) 2,691 8.6 -1.9°
Maximum altitude 12:07:03 14° 331° (NNW) 2,382 8.7 -1.4°
Drops below altitude 10° 12:10:11 10° 2° (N) 2,635 9.4 -1.0°
Sets 12:14:06 0° 27° (NNE) 3,518 10.7 -0.4°
